AirNav   Air Wisconsin pilot careers
 
 427 users online  

16G Seneca County Airport
Tiffin, Ohio, USA

GOING TO TIFFIN?


FAA INFORMATION EFFECTIVE 11 OCTOBER 2018

Location

FAA Identifier: 16G
Lat/Long: 41-05-38.6000N / 083-12-45.0000W
41-05.643333N / 083-12.750000W
41.0940556 / -83.2125000
(estimated)
Elevation: 785.9 ft. / 239.5 m (surveyed)
Variation: 05W (1985)
From city: 2 miles SW of TIFFIN, OH
Time zone: UTC -4 (UTC -5 during Standard Time)
Zip code: 44883

Airport Operations

Airport use: Open to the public
Control tower: no
ARTCC: CLEVELAND CENTER
FSS: CLEVELAND FLIGHT SERVICE STATION
NOTAMs facility: CLE (NOTAM-D service available)
Attendance: 0800-DUSK
Wind indicator: lighted
Segmented circle: yes
Lights: ACTVT MIRL RY 06/24; REIL & PAPI RYS O6 & 24 - CTAF.
Beacon: white-green (lighted land airport)
Operates sunset to sunrise.

Airport Communications

CTAF/UNICOM: 123.0
WX AWOS-3: 127.175 (419-443-1043)
TOLEDO APPROACH: 120.8 [0600-2300]
TOLEDO DEPARTURE: 120.8 [0600-2300]
WX AWOS-3 at FZI (10 nm NW): 124.625 (419-436-0053)
WX AWOS-3 at S24 (14 nm NE): 119.575 (419-547-6932)

Nearby radio navigation aids

VOR radial/distance  VOR name  Freq  Var
FBCr073/26.0FLAG CITY VORTAC108.2002W
VWVr140/28.8WATERVILLE VOR/DME113.1002W
BUDr352/(29.4)BUCKEYE VOR109.8005W
MFDr299/31.2MANSFIELD VORTAC108.8003W

 
NDB name  Hdg/Dist  Freq  Var  ID
TIFFINat field26905WTII - .. ..
PORT CLINTON218/29.842307WPCW .--. -.-. .--

Airport Services

Fuel available: 100LL JET-A
FUEL AVBL 24 HRS WITH CREDIT CARD.
Parking: hangars and tiedowns
Airframe service: MAJOR
Powerplant service: MAJOR
Bulk oxygen: HIGH/LOW

Runway Information

Runway 6/24

Dimensions: 4000 x 75 ft. / 1219 x 23 m
Surface: asphalt, in good condition
Runway edge lights: medium intensity
RUNWAY 6  RUNWAY 24
Latitude: 41-05.461090N41-05.824897N
Longitude: 083-13.113030W083-12.387342W
Elevation: 785.9 ft.781.1 ft.
Gradient: 0.1%0.1%
Traffic pattern: leftleft
Runway heading: 061 magnetic, 056 true241 magnetic, 236 true
Markings: nonprecision, in good conditionnonprecision, in good condition
Visual slope indicator: 4-light PAPI on left (3.00 degrees glide path)
RY 06 PAPI UNUSBL BYD 5 DEG LEFT OF CNTRLN.
4-light PAPI on left (3.00 degrees glide path)
UNUSBL BYD 4 DEG LEFT OF CRS & 8 DEG RIGHT OF CRS.
Runway end identifier lights: yesyes
Touchdown point: yes, no lightsyes, no lights
Obstructions: 85 ft. trees, 231 ft. from runway, 245 ft. right of centerline
RWY 06 APCH SLOPE 0:1 DUE TO +85 FT TREE 231 FT FM 245R
62 ft. trees, 666 ft. from runway, 298 ft. left of centerline, 6:1 slope to clear
RWY 24 +5.5 FT POWER BOX 100 FT FROM THLD 195 FT LEFT.

Airport Ownership and Management from official FAA records

Ownership: Publicly-owned
Owner: SENECA COUNTY COMSN
81 JEFFERSON ST
TIFFIN, OH 44883
Phone 419-447-4550
Manager: BRAD NEWMAN
1778 W. ST. RT 224
TIFFIN, OH 44883
Phone 419-447-4263

Airport Operational Statistics

Aircraft based on the field: 34
Single engine airplanes: 26
Multi engine airplanes: 8
    
Aircraft operations: avg 165/day *
68% local general aviation
23% transient general aviation
8% air taxi
<1% military
* for 12-month period ending 23 July 2015

Additional Remarks

AWOS 127.175 PHONE 419-443-1043
CREW CAR AND RENTAL CARS AVBL ON THE FLD.

Instrument Procedures

NOTE: All procedures below are presented as PDF files. If you need a reader for these files, you should download the free Adobe Reader.

NOT FOR NAVIGATION. Please procure official charts for flight.
FAA instrument procedures published for use from 11 October 2018 at 0901Z to 8 November 2018 at 0900Z.

 
IAPs - Instrument Approach Procedures
RNAV (GPS) RWY 06   download (169KB)
RNAV (GPS) RWY 24   download (186KB)
VOR RWY 06   download (174KB)
NDB RWY 24   download (151KB)
NOTE: Special Take-Off Minimums/Departure Procedures apply   download (164KB)

Other nearby airports with instrument procedures:

KFZI - Fostoria Metropolitan Airport (10 nm NW)
56D - Wyandot County Airport (13 nm S)
S24 - Sandusky County Regional Airport (14 nm NE)
14G - Fremont Airport (15 nm N)
KFDY - Findlay Airport (21 nm W)
 
Loc | Ops | Rwys | IFR | FBO | Links
Com | Nav | Svcs | Stats | Notes


 
Area around 16G (Seneca County Airport)
 
Road maps at: MapQuest Bing Google
 
Aerial photo
WARNING: Photo may not be current or correct
Aerial photo of 16G (Seneca County Airport)
Do you have a better or more recent aerial photo of Seneca County Airport that you would like to share? If so, please send us your photo.

 
Sectional chart

 
Airport distance calculator
Flying to Seneca County Airport? Find the distance to fly.

From to 16G

Sunrise and sunset
Times for 16-Oct-2018
 Local
(UTC-4)
 Zulu
(UTC)
Morning civil twilight07:1911:19
Sunrise07:4711:47
Sunset18:5022:50
Evening civil twilight19:1823:18

Current date and time
Zulu (UTC)  16-Oct-2018 05:57:40
Local (UTC-4)  16-Oct-2018 01:57:40
 
METAR
KFDY 
21nm W 
160553Z AUTO 20004KT 10SM CLR 02/00 A3024 RMK AO2 SLP239 T00170000 10078 20017 58002
KMNN 
29nm S 
160553Z AUTO 20003KT 10SM CLR 02/00 A3026 RMK AO2 SLP253 T00170000 10078 20017 52002 TSNO
KPCW 
30nm NE 
160530Z AUTO 24005KT 10SM CLR 03/M01 A3023 RMK AO2
KTDZ 
31nm NW 
160553Z AUTO 22005KT 10SM CLR 02/M01 A3025 RMK AO2 SLP245 T00221011 10072 20017 50001
KOWX 
35nm W 
160535Z AUTO 22004KT 10SM CLR 00/M01 A3027 RMK AO1
KMFD 
36nm SE 
160552Z AUTO 24003KT 10SM CLR 02/M01 A3023 RMK AO2 SLP244 T00171006 10072 20017 50002
KTOL 
40nm NW 
160552Z 21003KT 10SM CLR 02/M02 A3024 RMK AO2 SLP243 T00171017 10067 20011 52002 $
TAF
KFDY 
21nm W 
151741Z 1518/1618 28014G25KT P6SM OVC025 FM152000 29014G20KT P6SM BKN040 FM152300 29010KT P6SM SCT250 FM160800 24005KT P6SM SKC
NOTAMs
Click for the latest NOTAMs
NOTAMs are issued by the DoD/FAA and will open in a separate window not controlled by AirNav.

 

 
 

FBO, Fuel Providers, and Aircraft Ground Support

  
 Business Name 
 
 Contact 
 
 Services / Description 
 
Fuel Prices
 
Comments
  
Tiffin Aire 419-447-4263
no information available

If you are affiliated with Tiffin Aire and would like to show here your services, contact info, web link, logo, and more, click here
100LL Jet A
FS $4.60 $3.97 
 Updated 04-Oct-2018
 
   15 read write
FS=Full service
Update Fuel Prices
 

Would you like to see your business listed on this page?

 If your business provides an interesting product or service to pilots, flight crews, aircraft, or users of the Seneca County Airport, you should consider listing it here.  To start the listing process, click on the button below
 
Add a business
 

Other Pages about Seneca County Airport

Update a link
 
Copyright © AirNav, LLC. All rights reserved. Privacy Policy  Contact